Other Public Products
Issued by NWS Charleston, SC

Current Version | Previous Version | Graphics & Text | Print | Product List | Glossary On
Versions: 1 2 3 4 5 6 7 8 9 10 11 12 13 14 15 16 17 18 19 20 21 22 23 24 25 26 27 28 29 30 31 32 33 34 35 36 37 38 39 40 41 42 43 44 45 46 47 48 49 50
000 FPUS82 KCHS 100727 OPUCHS TEST...KCHS/KSAV Gateway Observations...TEST National Weather Service Charleston SC 200 AM EST SAT DEC 10 2016 NOTE: "fair" indicates few or no clouds below 12,000 feet with no significant weather and/or obstructions to visibility. SCZ050-WAZ558-NCZ071-TXZ119-213-PAZ071-DCZ001-FLZ074-172-MI076- NYZ176-178-MAZ016-IL014-TNZ027-NJZ106-GAZ044-MD014-100800- ...Gateway Observations for Charleston International... CITY SKY/WX TMP DP RH WIND PRES REMARKS Chas Airport CLEAR 34 22 61 NE7 30.46R WCI 28 Seattle LGT RAIN 35 33 92 SE15 29.82S WCI 25 Charlotte CLEAR 27 13 55 N3 30.50R Dallas DFW CLOUDY 36 23 59 SE6 30.48F WCI 31 Dallas Love CLOUDY 38 22 52 SE7 30.51F WCI 33 Philladelphia PTCLDY 30 18 60 W12 30.39R WCI 20 Wash National CLOUDY 32 16 51 W12 30.44S WCI 23 Baltimore PTCLDY 27 18 69 W10 30.42S WCI 17 Miami CLOUDY 63 59 87 NW8 30.21S Detroit FLURRIES 25 20 81 W13 30.42S WCI 14 Newark CLEAR 29 15 56 SW8 30.32R WCI 21 Laguardia CLEAR 32 15 49 NW14 30.31R WCI 22 J F K PTCLDY 31 13 47 NW13 30.33R WCI 21 Boston Logan CLEAR 24 8 50 W15G24 30.22R WCI 11 Ft. Lauderdale CLOUDY 65 62 90 NW8 30.20S Chicago O`Hare CLOUDY 19 12 74 W10 30.50S WCI 7 Chicago Midway CLOUDY 21 11 65 W10 30.52S WCI 10 Houston Bush CLOUDY 43 28 55 NE5 30.51F Houston Hobby MOCLDY 46 29 51 NE6 30.50F Nashville CLEAR 23 16 74 CALM 30.58F Atlanta CLEAR 30 18 60 NW9 30.46S WCI 22 $$ GAZ044-118-TXZ119-213-NCZ071-DCZ001-MDZ014-506-PAZ021-071-NJZ106- NYZ176-178-MAZ106-OHZ011-021-055-MIZ076-KYZ091-ILZ014-INZ047- MNZ060-100800- ...Gateway Observations for Savannah International... CITY SKY/WX TMP DP RH WIND PRES REMARKS Savannah Arpt CLEAR 32 29 88 NE5 30.47R WCI 27 Atlanta CLEAR 30 18 60 NW9 30.46S WCI 22 Charlotte CLEAR 27 13 55 N3 30.50R Dallas DFW CLOUDY 36 23 59 SE6 30.48F WCI 31 Houston Bush CLOUDY 43 28 55 NE5 30.51F Wash National CLOUDY 32 16 51 W12 30.44S WCI 23 Wash Dulles PTCLDY 28 14 55 SW3 30.44S Baltimore PTCLDY 27 18 69 W10 30.42S WCI 17 Philadelphia PTCLDY 30 18 60 W12 30.39R WCI 20 Newark CLEAR 29 15 56 SW8 30.32R WCI 21 Laguardia CLEAR 32 15 49 NW14 30.31R WCI 22 J F K PTCLDY 31 13 47 NW13 30.33R WCI 21 Boston CLEAR 24 8 50 W15G24 30.22R WCI 11 Pittsburg PTCLDY 24 19 81 W9 30.39S WCI 14 Akron FLURRIES 24 17 74 W12 30.40S WCI 13 Cleveland CLOUDY 27 18 69 SW16 30.43S WCI 15 Cincinnati PTCLDY 19 15 84 SW5 30.52F WCI 12 Columbus N/A 23 20 89 SW7 30.50S WCI 14 Detroit FLURRIES 25 20 81 W13 30.42S WCI 14 Chicago O`Hare CLOUDY 19 12 74 W10 30.50S WCI 7 Minneapolis PTCLDY 7 0 73 W8 30.51R WCI -6 Indianapolis CLOUDY 22 17 81 W8 30.52S WCI 12 $$

USA.gov is the U.S. government's official web portal to all federal, state and local government web resources and services.